Regional Weather Roundup
Issued by NWS

Home | Current Version | Previous Version | Text Only | Print | Product List | Glossary Off
Versions: 1 2 3 4 5 6 7 8 9 10 11 12 13 14 15 16 17 18 19 20 21 22 23 24 25 26 27

000
ASUS45 KSLC 181110
RWRUT

UTAH REGIONAL WEATHER ROUNDUP
NATIONAL WEATHER SERVICE SALT LAKE CITY UT
500 AM MDT WED APR 18 2018

UTZ001>011-023>025-181200-

NORTHERN UTAH

CITY           SKY/WX    TMP DP  RH WIND       PRES   REMARKS
BRIGHAM CITY   CLEAR     29  22  74 NE3       30.28R
DUGWAY         PTCLDY    25  20  82 SE1       30.26R
HILL AFB       CLEAR     32  16  51 E12       30.26R WCI  23
LOGAN          CLEAR     31  21  66 N5        30.27R WCI  26
OGDEN          CLEAR     31  17  56 S8        30.26R WCI  23
SALT LAKE CITY CLEAR     35  25  66 SE6       30.26S WCI  30
TOOELE VALLEY  CLEAR     30  23  74 S5        30.27R WCI  25
WENDOVER       PTCLDY    33  20  58 CALM      30.25S
HEBER CITY       N/A     23  16  74 CALM      30.27R
WEST JORDAN    CLEAR     30  22  74 CALM      30.27S

$$

UTZ011>015-024>027-181200-

CENTRAL/NORTHEAST UTAH

CITY           SKY/WX    TMP DP  RH WIND       PRES   REMARKS
PROVO AIRPORT  PTCLDY    29  21  72 E3        30.28S
MOAB/CANYONLAN CLEAR     28   5  37 CALM      30.24R
DELTA          CLEAR     32  27  80 NE7       30.24R WCI  26
PRICE          CLEAR     25  11  55 NE8       30.23S WCI  16
ROOSEVELT      CLEAR     27   7  43 CALM      30.30R
VERNAL         CLEAR     23  10  57 CALM      30.28R

$$

UTZ013>016-019>022-027-181200-

SOUTHERN UTAH

CITY           SKY/WX    TMP DP  RH WIND       PRES   REMARKS
BRYCE CANYON   PTCLDY    13   6  74 W9        30.23S WCI   1
CEDAR CITY     CLEAR     23  17  78 S5        30.19R WCI  17
MILFORD        CLEAR     25  25 100 CALM      30.22S
ST GEORGE      MOSUNNY   44   8  23 SE5       30.17S
HANKSVILLE     CLEAR     28   3  34 NW6       30.28S WCI  22
BLANDING         N/A     29   4  35 N6        30.29R WCI  22

$$

REGIONAL REPORTS     COLORADO/ARIZONA

CITY           SKY/WX    TMP DP  RH WIND       PRES   REMARKS
CRAIG, CO      CLEAR     18  14  84 E3        30.28R
GRAND JUNCTION CLEAR     28  17  63 CALM      30.27R
RIFLE, CO      PTCLDY    24  21  88 NE5       30.30R WCI  18
MONTROSE, CO   CLEAR     25  11  55 SE10      30.30R WCI  15
CORTEZ, CO     PTCLDY    27   1  32 E9        30.21R WCI  18
COLORADO CITY    N/A     37   7  28 NE7       30.21R WCI  32
PAGE, AZ       CLEAR     40   8  26 CALM      30.20S
GRAND CANYON   PTCLDY    34  -1  22 E9        30.20R WCI  27
KINGMAN, AZ    CLEAR     42   3  19 SE12      30.09F
FLAGSTAFF, AZ  PTCLDY    32  -2  23 NE9       30.19S WCI  24

$$

REGIONAL REPORTS    NEVADA/IDAHO/WYOMING

CITY           SKY/WX    TMP DP  RH WIND       PRES   REMARKS
LAS VEGAS, NV  CLEAR     54  11  18 N3        30.09S
ELY, NY        PTCLDY    19   9  65 SE9       30.19F WCI   8
ELKO, NV       PTCLDY    24  18  77 CALM      30.16S
POCATELLO, ID  CLEAR     29  18  63 E3        30.24R
BURLEY, ID     CLEAR     29  19  66 SW13      30.21R WCI  19
FORT BRIDGER,    N/A     20  11  68 W7        30.27S WCI  11
EVANSTON, WY   CLEAR     21  12  68 S7        30.23S WCI  12
ROCK SPRINGS,  CLEAR     22  13  68 SW12      30.25R WCI  10
KEMMERER, WY   CLEAR     19  16  86 CALM      30.24S

$$




USA.gov is the U.S. government's official web portal to all federal, state and local government web resources and services.